ARIANE 5 R/B, 42693

Orbit data source: Space-Track

ARIANE 5 R/B, 42693 is space debris in HEO originally from a launch on Thu, 04 May 2017 UTC launched from the French Guiana (FRGUI). Debris objects in space refer to the collection of defunct objects orbiting the Earth. Examples of debris include non-operational satellites, rocket bodies, and fragments generated from explosions, collisions, or faulty payload assembly.

Loading next visibility...
Identifier
42693, 2017-023C
Orbit
HEO
Country
Flag of FRFR
Related business
Manufacturer
Airbus Safran
Mission
Spacecraft
Bus & Motor
ESC-A, Unknown motor
Mass
~5,000 kg wet, ~5,000 kg dry
Launch date (UTC)
2017-05-04 (9 years ago)
Launch vehicle
Unknown
Launch site
French Guiana (FRGUI)
Object type
Payload
Rocket body
Debris
Shape & HBR
Cyl + 1 Nozzle, 3.5 m
Radar Cross Section
41.627 m², Large (>1 m²)

Expand to show TLE details & history
Last TLE update: 3 days ago

TLE from 3 days ago
0 ARIANE 5 R/B
1 42693U 17023C   26170.90201240  .00001020  00000-0  69955-3 0  9991
2 42693   4.0512  14.9947 7113044 157.8420 262.1018  2.47056678 78302
Epoch: 2026-06-19T21:38Z
TLE epoch observation values (Epoch: 2026-06-19T21:38:53.871Z)
Latitude
0.00001°
Longitude
142.00587°
Altitude
27,139.999 km
Speed
2.557 km/s
True Right ascension
00h 59m 25s
True Declination
0° 00' 00"
Sunlit
Object was in daylight at epoch
Visualization orbit readout
Latitude
Unknown
Longitude
Unknown
Altitude
Unknown
Speed
Unknown
Apparent Right ascension
Unknown
Apparent Declination
Unknown
Sunlit
N/A
Visualization observer readout
Local Sidereal Time
23:27:06
Azimuth
Unknown
Elevation
Unknown
Doppler factor
Unknown
Orbital elements
Apogee altitude
33,185.904 km
Perigee altitude
296.283 km
Semi-major axis
23,119.231 km
Eccentricity
0.7113
Inclination
4.0512°
RAAN
14.9947°
Arg. of periapsis
157.842°
True anomaly
201.97778°
Mean anomaly
262.1018°
Eccentric anomaly
230.60637°
Mean motion
0.61742 °/min
Orbital period
583.07 mins
BSTAR
0.00069955
Loading maneuver chart data...
Computing Atmospheric mass density...
Loading historical data...
Loading historical data...
Loading historical data...
Loading historical data...
Loading historical data...
Loading historical data...
Loading historical data...
Other satellites on launch #23 in the year 2017 (2017-05-04 UTC)

Documentation

Showing up to 5 results
|